Flag for India Weather past 2 weeks in Kãnpur, Uttar Pradesh, India

Now
61 °F

Haze.


Feels Like: 61 °F
Forecast: 60 / 82 °F
Wind: No wind

Location: Lucknow / Amausi

Current Time: Mar 7, 2015 at 3:39:07 AM

Latest Report: Mar 7, 2015 at 2:00 AM


Visibility: 2 mi

Pressure: 29.95 "Hg

Humidity: 77%

Dew point: 54 °F

Location of KãnpurLocation

Historic Weather in Kãnpur — Graph

°F

Kãnpur temperature yesterday

Maximum temperature yesterday: 81 °F (at 2:30 PM)
Minimum temperature yesterday: 55 °F (at 3:00 AM)
Average temperature yesterday: 69 °F

Past Weeks' High & Low Weather Summary

 TemperatureHumidityPressure
High88 °F (Feb 20, 2:00 PM)100% (Mar 1, 10:30 AM)30.07 "Hg (Mar 1, 10:30 AM)
Low52 °F (Mar 5, 4:00 AM)32% (Mar 6, 2:30 PM)29.71 "Hg (Feb 26, 4:00 AM)
Average71 °F71%29.90 "Hg
* Reported Feb 20 3:00 AM — Mar 7 2:00 AM, Kãnpur, Weather by CustomWeather, © 2015

Note: Actual official high and low records may vary slightly from our data, if they occured in-between our weather recording intervals... More about our weather records

Advertising

Kãnpur weather history for previous 24 hours

 ConditionsComfort  
Time TempWeatherWind HumidityBarometerVisibility
2:00 AM
Sat, Mar 7
61 °FHaze.No wind77%29.95 "Hg2 mi
1:00 AM63 °FHaze.No wind73%29.98 "Hg2 mi
12:00 AM64 °FHaze.2 mph68%29.98 "Hg2 mi
11:00 PM
Fri, Mar 6
64 °FHaze.2 mph68%30.01 "Hg2 mi
10:00 PM64 °FHaze.2 mph68%29.98 "Hg2 mi
9:00 PM66 °FHaze.2 mph64%29.98 "Hg2 mi
8:00 PM68 °FHaze.No wind60%29.98 "Hg2 mi
7:30 PM70 °FHaze.2 mph57%29.98 "Hg2 mi
7:00 PM70 °FHaze.2 mph60%29.95 "Hg2 mi
6:30 PM73 °FHaze.2 mph57%29.95 "Hg3 mi
6:00 PM75 °FHaze.2 mph50%29.95 "Hg3 mi
5:30 PM79 °FHaze.8 mph42%29.95 "Hg3 mi
5:00 PM79 °FHaze.10 mph37%29.95 "Hg3 mi
4:30 PM81 °FHaze.9 mph37%29.95 "Hg3 mi
4:00 PM81 °FHaze.10 mph37%29.95 "Hg3 mi
3:30 PM81 °FHaze.12 mph32%29.95 "Hg3 mi
2:30 PM81 °FHaze.12 mph32%29.98 "Hg3 mi
2:00 PM79 °FHaze.5 mph39%29.98 "Hg3 mi
1:30 PM79 °FHaze.8 mph39%30.01 "Hg3 mi
1:00 PM79 °FHaze.9 mph39%30.01 "Hg3 mi
12:30 PM79 °FClear.10 mph42%29.89 "Hg3 mi
12:00 PM79 °FHaze.12 mph45%30.04 "Hg3 mi
11:30 AM77 °FHaze.8 mph47%30.04 "Hg3 mi
11:00 AM75 °FHaze.9 mph54%30.04 "Hg3 mi
10:30 AM73 °FHaze.7 mph57%30.07 "Hg3 mi
10:00 AM73 °FHaze.6 mph57%30.07 "Hg2 mi
9:00 AM66 °FHaze.No wind73%30.04 "Hg1 mi
8:30 AM63 °FFog.No wind77%30.04 "Hg1 mi
8:00 AM59 °FFog.No wind82%30.01 "Hg1 mi
7:30 AM57 °FFog.No wind82%30.01 "Hg1 mi
6:30 AM55 °FFog.No wind88%29.98 "Hg1 mi
6:00 AM55 °FFog.2 mph88%29.98 "Hg1 mi
5:30 AM55 °FFog.2 mph88%29.98 "Hg2 mi
5:00 AM55 °FFog.2 mph82%29.95 "Hg2 mi
4:00 AM55 °FFog.2 mph82%29.95 "Hg2 mi
3:00 AM55 °FFog.2 mph82%29.98 "Hg2 mi
Weather by CustomWeather, © 2015

See weather overviewHow to use our weather pages